Weather Roundup
Issued by NWS Chicago, IL

Home | Current Version | Previous Version | Graphics & Text | Print | Product List | Glossary On
Versions: 1 2 3 4 5 6 7 8 9 10 11 12 13 14 15 16 17 18 19 20 21 22 23 24 25 26 27 28 29 30 31 32 33 34 35 36 37 38 39 40 41 42 43 44 45 46 47 48 49 50
000
NZUS59 KLOT 020821
HRRLOT

CHICAGO AREA WEATHER ROUNDUP
NATIONAL WEATHER SERVICE CHICAGO/ROMEOVILLE IL
300 AM CDT WED SEP 02 2015

NOTE: "FAIR" INDICATES FEW OR NO CLOUDS BELOW 12,000 FEET WITH NO
SIGNIFICANT WEATHER AND/OR OBSTRUCTIONS TO VISIBILITY.

* THESE STATIONS ARE NOT UNDER NWS QUALITY CONTROL. THEY ALSO MAY NOT
  REPORT WEATHER SUCH AS PRECIPITATION OR FOG.

ILZ005-006-012>014-019>023-020900-
NORTHEAST ILLINOIS

CITY           SKY/WX    TMP DP  RH WIND       PRES   REMARKS
OHARE          PTCLDY    74  69  85 SW5       30.02S
MIDWAY         PTCLDY    76  68  76 SW9       30.02S
AURORA         CLEAR     68  66  93 CALM      30.04S FOG
LANSING*       CLEAR     70  67  90 SW5       30.04S
JOLIET*        CLEAR     71  69  94 CALM      30.03F
WAUKEGAN       PTCLDY    74  69  85 VRB5      30.00S
DUPAGE AIRPORT CLEAR     71  67  87 SW3       30.03S
WHEELING       PTCLDY    75  68  78 S5        30.03S
KANKAKEE*      CLEAR     68  67  95 CALM      30.06S
MORRIS*        CLEAR     70  67  92 CALM      30.03S
LEWIS AIRPORT* CLEAR     69  67  93 SW6       30.04S
NORTHERLY IS     N/A     76  67  73 SW8         N/A
$$

WIZ051-052-058>065-066-070>072-020900-
SOUTHEAST WISCONSIN

CITY           SKY/WX    TMP DP  RH WIND       PRES   REMARKS
MILWAUKEE      PTCLDY    75  69  81 SW6       29.99F
KENOSHA*       CLEAR     74  69  85 SW9       30.01S
RACINE*        PTCLDY    75  69  81 SW6       30.01F
BURLINGTON     PTCLDY    67  66  97 CALM      30.01R
WAUKESHA       CLEAR     70  68  94 CALM      30.02S
WEST BEND      PTCLDY    70  68  94 CALM      30.00S
$$

INZ001>003-010>013-019-020-020900-
NORTHWEST INDIANA

CITY           SKY/WX    TMP DP  RH WIND       PRES   REMARKS
GARY*          CLEAR     74  67  78 CALM      30.04S
MICHIGAN CITY* NOT AVBL
RENSSELAER*    NOT AVBL
VALPARAISO     CLEAR     70  68  93 S3        30.06S
$$

LMZ740>746-020900-
SOUTHERN LAKE MICHIGAN

STATION/POSITION TIME  SKY/WX   TEMP WIND        PRES    VSBY
                                AIR  DIR/SP/G
                 (UTC)          (F)  (DEG/KT/KT) (MB)    (MI)
HARRISON CRIB    0800            75  240/  7/ 10   N/A
BURNHAM HARBOR   0800            76  260/  6/ 10   N/A
CALUMET HARBOR   0700            75  200/  7/  9   N/A
BURNS HARBOR     0700            75  210/ 10/ 12 1017.6S
MICHIGAN CITY    0700            74  180/ 10/ 11   N/A
$$

ABBREVIATIONS USED IN REMARKS
   TC - TEMPERATURE IN CELSIUS
  WCI - WIND CHILL INDEX
   HX - HEAT INDEX
  VSB - VISIBILITY
$$



USA.gov is the U.S. government's official web portal to all federal, state and local government web resources and services.